Regional Weather Roundup
Issued by NWS

Home | Current Version | Previous Version | Graphics & Text | Print | Product List | Glossary On
Versions: 1 2 3 4 5 6 7 8 9 10 11 12 13 14 15 16 17 18 19 20 21 22 23 24 25 26 27 28 29 30 31 32 33 34 35 36 37 38 39 40 41 42 43 44 45 46 47 48 49 50
000
ASUS45 KBOI 242210
RWRID

IDAHO REGIONAL WEATHER ROUNDUP
NATIONAL WEATHER SERVICE BOISE ID
400 PM MDT SUN JUL 24 2016

NOTE: "FAIR" INDICATES FEW OR NO CLOUDS BELOW 12000 FEET
WITH NO SIGNIFICANT WEATHER AND/OR OBSTRUCTIONS TO VISIBILITY

IDZ012-014-242300-
SOUTHWEST IDAHO


CITY           SKY/WX    TMP DP  RH WIND       PRES   REMARKS
BOISE          SUNNY     89  33  13 MISG      30.02F
CALDWELL       NOT AVBL
MOUNTAIN HOME  SUNNY     91  35  13 N6        30.01F
$$

IDZ016-017-242300-
SOUTHCENTRAL IDAHO


CITY           SKY/WX    TMP DP  RH WIND       PRES   REMARKS
BURLEY         SUNNY     83  42  23 W5        30.08F
JEROME         SUNNY     85  36  17 W6        30.10F
TWIN FALLS     SUNNY     86  36  16 N8        30.10F
$$

IDZ019>023-242300-
SOUTHEAST IDAHO


CITY           SKY/WX    TMP DP  RH WIND       PRES   REMARKS
IDAHO FALLS    SUNNY     84  31  14 W7        30.14F
POCATELLO      SUNNY     87  31  13 NW10      30.13F
REXBURG        SUNNY     84  29  13 W8        30.15F
$$

IDZ006-010-011-018-031-032-242300-
CENTRAL IDAHO MOUNTAINS


CITY           SKY/WX    TMP DP  RH WIND       PRES   REMARKS
MCCALL         SUNNY     79  40  24 CALM      30.16F
HAILEY         SUNNY     82  41  23 SE10      30.18S
STANLEY          N/A     83  28  13 N10       30.21F
SALMON         SUNNY     86  39  19 N7        30.02F
CHALLIS        SUNNY     88  31  13 NE5       30.09F
$$

IDZ002-004-006-007-026-242300-
NORTHERN IDAHO


CITY           SKY/WX    TMP DP  RH WIND       PRES   REMARKS
LEWISTON       SUNNY     90  39  16 VRB6      30.00F
LOWELL           N/A     92  51  24 VRB3      29.97F
COEUR D`ALENE  SUNNY     82  52  34 NW5       30.04S
MULLAN PASS    SUNNY     69  46  43 VRB3      30.24F
$$



USA.gov is the U.S. government's official web portal to all federal, state and local government web resources and services.